Weather History for Renton, WA

Change the Weather History Date:

Wednesday, October 10, 2012

  Actual Average Record
Temperature  
Mean Temperature 50 °F -  
Max Temperature 55 °F 61 °F 68 °F (1996)
Min Temperature 46 °F 47 °F 39 °F (2006)
Degree Days  
Heating Degree Days 14    
Moisture  
Dew Point 46 °F    
Average Humidity 85    
Maximum Humidity 93    
Minimum Humidity 72    
Precipitation  
Precipitation 0.00 in - - ()
Sea Level Pressure  
Sea Level Pressure 30.03 in    
Wind  
Wind Speed 1 mph (WSW)    
Max Wind Speed 5 mph    
Max Gust Speed -    
Visibility 5 miles    
Events      
Averages and records for this station are not official NWS values.
T = Trace of Precipitation, MM = Missing Value Source: NWS Daily Summary

Daily Weather History Graph

Daily Weather History Graph

Search for Another Location

Airport:

Trip Planner

Search our weather history database for the weather conditions in past years. The results will help you decide how hot, cold, wet, or windy it might be!

Date:

Astronomy

Oct. 10, 2012 Rise Set
Actual Time 7:21 AM PDT 6:29 PM PDT
Civil Twilight 6:50 AM PDT 7:00 PM PDT
Nautical Twilight 6:14 AM PDT 7:35 PM PDT
Astronomical Twilight 5:39 AM PDT 8:11 PM PDT
Moon 1:42 AM PDT (10/10) 3:52 PM PDT (10/10)
Length of Visible Light 12h 09m
Length of Day
11h 08m
Waning Crescent, 26% of the Moon is Illuminated
Oct 10
Waning Crescent
Oct 15
New
Oct 21
First Quarter
Oct 29
Full
Nov 6
Last Quarter

Hourly Weather History & Observations

Time (PDT) Temp. Windchill Dew Point Humidity Pressure Visibility Wind Dir Wind Speed Gust Speed Precip Events Conditions
12:53 AM 48.0 °F - 44.1 °F 86% 30.05 in 7.0 mi Calm Calm - N/A   Clear
1:30 AM 46.4 °F - 44.6 °F 93% 30.04 in 6.0 mi Calm Calm - N/A   Scattered Clouds
1:40 AM 46.4 °F - 44.6 °F 93% 30.04 in 6.0 mi Calm Calm - N/A   Mostly Cloudy
1:53 AM 46.9 °F - 43.0 °F 86% 30.06 in 7.0 mi Calm Calm - N/A   Mostly Cloudy
2:26 AM 46.4 °F - 42.8 °F 87% 30.04 in 8.0 mi Calm Calm - N/A   Overcast
2:53 AM 48.0 °F - 44.1 °F 86% 30.05 in 8.0 mi SSE 3.5 mph - N/A   Overcast
3:00 AM 48.2 °F - 44.6 °F 87% 30.03 in 7.0 mi Calm Calm - N/A   Overcast
3:53 AM 48.0 °F - 45.0 °F 89% 30.04 in 4.0 mi East 3.5 mph - N/A   Overcast
4:53 AM 48.0 °F - 45.0 °F 89% 30.04 in 2.5 mi Calm Calm - N/A   Overcast
5:04 AM 46.4 °F - 44.6 °F 93% 30.03 in 1.5 mi Calm Calm - N/A   Overcast
5:15 AM 46.4 °F - 44.6 °F 93% 30.03 in 2.5 mi Calm Calm - N/A   Overcast
5:34 AM 46.4 °F - 44.6 °F 93% 30.03 in 1.5 mi Calm Calm - N/A   Overcast
5:42 AM 46.4 °F 45.2 °F 44.6 °F 93% 30.02 in 3.0 mi SSE 3.5 mph - N/A   Overcast
5:53 AM 46.9 °F - 45.0 °F 93% 30.04 in 4.0 mi Calm Calm - N/A   Overcast
6:53 AM 46.9 °F - 45.0 °F 93% 30.04 in 2.5 mi Calm Calm - N/A   Overcast
7:01 AM 46.4 °F - 44.6 °F 93% 30.03 in 1.0 mi Calm Calm - N/A   Mist
7:20 AM 46.4 °F - 44.6 °F 93% 30.04 in 0.8 mi Calm Calm - N/A   Mist
7:29 AM 46.4 °F - 44.6 °F 93% 30.04 in 1.5 mi Calm Calm - N/A   Overcast
7:49 AM 46.4 °F - 44.6 °F 93% 30.04 in 3.0 mi Calm Calm - N/A   Overcast
7:53 AM 46.9 °F - 45.0 °F 93% 30.06 in 3.0 mi Calm Calm - N/A   Overcast
8:53 AM 46.9 °F - 45.0 °F 93% 30.06 in 5.0 mi Calm Calm - N/A   Overcast
9:53 AM 48.9 °F - 46.0 °F 90% 30.06 in 5.0 mi Calm Calm - N/A   Overcast
10:25 AM 50.0 °F - 46.4 °F 87% 30.04 in 5.0 mi Calm Calm - N/A   Overcast
10:53 AM 51.1 °F - 46.0 °F 83% 30.06 in 6.0 mi Calm Calm - N/A   Haze
11:53 AM 52.0 °F - 46.9 °F 83% 30.06 in 7.0 mi Calm Calm - N/A   Overcast
12:53 PM 53.1 °F - 46.9 °F 80% 30.05 in 8.0 mi Calm Calm - N/A   Overcast
12:59 PM 53.6 °F - 46.4 °F 77% 30.03 in 8.0 mi Calm Calm - N/A   Overcast
1:53 PM 55.0 °F - 46.9 °F 74% 30.03 in 8.0 mi Calm Calm - N/A   Overcast
2:53 PM 55.0 °F - 46.9 °F 74% 30.02 in 8.0 mi NNW 3.5 mph - N/A   Overcast
3:53 PM 55.9 °F - 46.9 °F 72% 30.01 in 6.0 mi Variable 3.5 mph - N/A   Haze
4:53 PM 55.9 °F - 46.9 °F 72% 30.01 in 6.0 mi West 4.6 mph - N/A   Haze
5:53 PM 55.9 °F - 48.0 °F 75% 30.00 in 6.0 mi WNW 4.6 mph - N/A   Haze
6:53 PM 55.0 °F - 46.9 °F 74% 30.00 in 8.0 mi West 3.5 mph - N/A   Overcast
7:53 PM 55.0 °F - 48.0 °F 77% 30.01 in 8.0 mi West 3.5 mph - N/A   Overcast
8:53 PM 55.0 °F - 48.0 °F 77% 30.01 in 9.0 mi WSW 3.5 mph - N/A   Overcast
9:53 PM 55.0 °F - 46.9 °F 74% 30.01 in 9.0 mi Calm Calm - N/A   Overcast
10:53 PM 54.0 °F - 48.0 °F 80% 30.02 in 7.0 mi Calm Calm - N/A   Overcast
11:53 PM 54.0 °F - 46.9 °F 77% 30.01 in 7.0 mi Calm Calm - N/A   Overcast